Wind_Speed
38 39 44 48 51 51 48 45 42 37 29 25 25 26 28 29 30 30 28 24 20 21 24 29 35 35 33 33 30 28 28 27 24 22 25 26 26 27 25 22 19 17 16 19 21 22 22 23 24 26 27 27 27 27 27 28 27 27 28 29 28 28 28 28 27 27 27 26 26 25 24 22 21 20 20 19 18 16 14 14 14 13 13 12 10 9
39 43 50 51 50 47 45 43 39 37 32 26 23 24 26 30 33 30 28 25 19 21 24 26 31 35 35 35 33 31 30 30 28 26 27 27 26 26 27 24 21 16 16 20 22 23 24 24 25 26 28 28 28 29 29 29 27 27 28 28 28 28 29 28 27 27 26 24 24 23 22 20 20 20 19 18 17 17 16 15 14 14 14 12 11 9
41 48 52 49 46 44 42 41 39 36 34 32 28 26 26 29 31 30 29 27 21 22 26 25 27 31 33 35 35 36 36 35 32 29 29 29 27 26 26 26 23 20 19 21 22 24 25 26 26 27 28 29 28 29 29 28 28 27 28 28 28 29 28 27 26 26 25 23 22 22 21 20 20 19 18 18 18 18 18 16 15 15 15 13 11 10
43 49 51 47 44 44 42 40 39 37 35 36 34 32 32 31 28 29 31 29 25 24 26 26 27 28 29 31 35 38 40 38 36 32 29 29 28 25 25 25 25 22 21 21 22 23 25 27 28 28 28 29 29 29 29 29 29 28 27 28 28 28 27 26 26 25 24 24 23 23 22 22 21 21 20 20 21 21 20 18 17 15 14 13 12 11
46 45 44 46 45 43 42 41 39 37 37 38 38 37 37 33 29 29 28 27 28 28 27 24 24 29 31 30 34 38 39 40 39 35 30 30 29 26 26 27 27 24 20 20 21 21 24 26 27 28 28 29 29 29 29 30 30 28 27 27 27 27 26 26 25 24 25 25 25 25 26 26 26 26 25 25 24 23 21 19 17 15 14 13 13 12
46 40 32 39 48 45 41 42 40 39 38 39 42 43 39 34 31 28 26 24 25 27 29 21 15 23 30 31 34 37 40 42 41 39 36 33 31 31 31 30 30 27 23 21 20 20 21 23 24 26 27 28 28 28 29 30 29 28 26 26 27 27 26 25 25 25 25 25 25 25 27 28 28 29 28 27 24 22 20 18 17 16 15 14 13 12
45 41 26 24 39 46 41 41 42 39 36 39 46 46 40 36 32 29 28 23 19 22 28 22 13 18 26 27 31 37 41 44 44 43 41 38 35 33 33 32 32 29 27 24 22 23 23 23 24 25 25 24 24 25 27 28 28 28 27 27 26 26 26 25 25 26 26 25 24 24 25 26 27 27 25 23 22 21 20 19 18 17 16 15 14 13
42 43 35 20 23 40 45 45 44 40 37 43 47 43 39 37 34 32 30 23 19 23 27 24 18 19 26 26 26 34 42 45 47 47 44 42 39 35 32 33 32 29 28 26 24 24 25 25 24 23 22 19 19 22 26 27 28 28 28 27 27 27 26 26 26 26 26 25 24 24 24 25 26 25 23 21 21 21 21 21 21 19 18 17 16 15
41 43 45 31 22 33 45 49 46 40 39 42 40 36 39 38 35 35 31 26 25 25 26 31 25 15 22 29 25 29 43 48 50 51 46 44 42 38 35 34 32 29 27 26 25 24 24 25 25 23 21 19 18 21 24 26 27 27 28 27 27 28 27 27 26 26 26 25 24 24 24 25 25 25 24 23 23 23 23 23 22 21 20 19 17 17
40 41 42 39 34 33 35 41 45 43 40 38 31 27 31 33 35 37 31 29 27 21 25 38 32 13 17 32 27 26 44 51 50 51 48 45 43 39 37 36 34 30 27 27 26 25 23 23 23 23 23 22 21 20 21 24 27 28 28 28 28 29 29 28 27 27 27 26 26 25 24 24 24 25 25 26 26 25 25 25 24 23 22 20 19 18
38 32 32 39 43 39 30 28 37 43 40 35 28 23 21 24 30 33 31 30 22 16 28 42 38 20 14 29 32 29 40 46 46 49 48 46 44 41 40 38 36 33 28 28 28 26 25 23 22 23 25 26 24 22 23 25 27 28 29 29 29 29 29 29 28 28 27 27 26 25 24 24 24 25 26 27 26 27 27 26 24 23 23 21 20 18
37 27 26 33 37 38 36 30 29 34 39 36 28 24 21 19 23 24 26 27 15 10 29 42 40 28 18 28 37 30 32 38 43 47 47 46 43 42 42 40 38 34 29 28 29 28 27 26 25 25 27 28 28 27 26 27 28 30 30 30 29 29 30 30 29 29 29 28 28 26 24 24 24 25 27 27 26 26 26 25 24 24 23 22 20 19
38 36 30 26 25 30 36 37 32 29 36 39 33 29 22 12 12 14 12 14 10 12 30 38 33 28 28 37 42 33 30 35 42 44 43 42 40 39 40 40 39 36 32 30 31 29 28 28 28 26 26 28 30 30 28 28 29 30 31 31 30 30 30 30 30 30 30 30 29 27 25 24 24 25 26 27 26 25 25 24 23 23 22 22 20 19
30 35 37 32 27 27 32 39 38 33 35 39 38 35 24 9 5 7 5 5 6 13 30 39 29 22 26 36 41 38 34 33 38 44 42 37 36 34 33 36 38 36 34 33 32 31 29 28 28 27 26 28 31 31 30 30 29 31 32 32 31 30 30 30 31 31 31 30 30 28 26 25 25 26 26 26 26 25 24 24 23 22 21 20 19 18
24 26 36 42 37 33 34 38 38 36 36 38 41 39 32 23 14 7 4 3 4 9 24 33 22 11 17 30 36 36 33 30 34 43 45 40 37 34 30 34 38 36 35 35 34 33 31 29 28 28 26 27 30 31 31 31 31 31 33 33 32 31 31 31 31 32 31 30 30 29 28 27 26 26 25 25 26 25 25 24 23 22 21 19 18 17
24 30 36 40 40 37 35 36 37 36 34 36 40 40 40 42 29 11 5 8 8 7 15 23 16 7 14 26 31 30 30 29 30 38 48 47 44 43 41 41 40 36 35 36 36 36 33 31 30 29 27 27 29 31 31 31 32 32 33 33 33 32 31 32 32 32 31 30 30 29 29 28 27 26 26 26 26 26 25 24 23 22 21 20 19 18
10 28 34 30 35 41 39 36 37 39 35 33 39 45 46 46 36 19 11 12 11 8 12 20 17 12 14 18 24 27 27 27 27 31 44 51 49 49 49 47 43 39 36 35 35 36 35 33 32 30 28 26 28 30 30 30 31 31 32 33 33 32 32 32 32 31 31 30 30 30 29 29 28 27 26 25 25 26 25 25 24 23 22 22 21 20
14 22 30 28 29 38 40 36 34 39 39 34 38 47 44 36 34 28 14 7 8 6 8 16 17 16 17 16 21 28 28 27 25 24 34 46 50 50 49 47 43 40 38 35 33 33 35 36 34 32 29 26 27 28 28 28 29 29 31 32 33 33 33 32 32 31 31 31 31 30 31 30 29 28 27 26 25 26 26 26 25 24 23 22 21 20
17 19 23 32 30 31 36 37 33 36 41 38 36 39 36 28 28 30 19 7 6 4 4 9 15 19 23 21 20 27 32 30 27 24 26 35 44 47 46 44 42 41 40 39 36 34 36 37 36 34 30 26 26 27 28 29 29 29 29 31 32 33 33 32 32 32 31 32 31 31 31 30 30 29 28 27 26 26 27 26 26 25 23 22 21 20
11 9 12 27 32 29 33 40 40 37 39 43 38 31 34 35 30 30 25 13 7 4 3 5 7 15 27 29 23 24 30 32 31 29 28 29 34 41 43 41 41 42 42 41 38 37 37 37 38 37 32 27 25 26 28 30 31 30 29 29 31 32 33 33 33 33 32 32 31 31 31 30 31 30 29 29 28 28 27 26 26 25 24 23 22 21
10 8 10 19 29 28 29 36 45 45 39 43 44 34 35 38 31 27 27 23 15 4 2 4 4 14 29 32 27 24 27 31 31 31 32 32 31 34 36 36 37 38 39 38 36 36 36 36 39 39 33 27 25 25 28 30 30 31 30 30 30 30 32 34 34 34 33 32 32 31 31 31 31 30 30 30 29 29 28 27 26 26 25 25 24 22
15 15 15 17 22 26 31 33 39 44 38 39 44 41 39 36 29 19 14 24 28 13 5 4 5 19 30 30 29 29 28 31 33 32 33 35 35 33 31 31 32 33 35 34 33 32 34 35 38 40 35 30 28 27 27 28 28 29 30 30 30 30 31 32 34 35 34 33 32 32 32 31 31 31 30 30 30 29 28 27 26 26 26 26 25 23
15 15 14 21 24 26 37 36 32 34 34 33 37 42 42 37 34 25 12 19 28 19 14 7 6 24 35 28 27 28 27 30 33 37 37 37 38 36 32 32 32 32 33 33 31 31 33 35 37 39 37 32 29 27 27 27 27 27 26 27 29 30 29 30 32 33 34 34 33 32 32 32 31 31 31 31 30 29 28 27 26 26 26 25 24 23
11 11 13 18 24 29 40 39 30 28 25 23 27 38 42 39 40 39 27 23 23 20 21 10 7 26 30 20 22 22 18 20 23 31 38 40 43 40 36 35 33 32 32 33 33 32 32 35 37 40 39 35 30 28 28 28 27 26 26 26 27 27 27 28 29 31 33 34 34 33 33 33 32 32 32 31 30 29 28 27 26 26 25 24 24 24
10 10 15 14 12 18 28 29 26 24 19 17 19 28 41 44 43 41 35 27 21 25 29 14 11 30 26 13 20 21 18 18 16 19 27 35 44 47 43 40 36 33 32 33 36 36 35 37 38 40 40 36 31 29 29 29 27 27 27 26 26 25 26 27 28 29 32 33 34 34 34 33 33 33 33 32 31 29 28 27 27 26 25 24 24 23
11 12 14 11 5 8 11 11 11 11 12 16 18 22 35 45 45 40 33 26 20 25 32 24 24 41 36 20 20 21 21 22 18 22 27 27 37 47 49 48 43 36 34 34 35 35 37 38 37 39 40 36 32 29 29 30 28 27 27 26 25 25 25 26 27 28 30 31 33 34 34 34 34 34 33 32 31 29 28 28 27 26 25 24 24 23
13 14 14 14 13 14 17 12 6 6 13 17 19 20 29 38 45 44 34 29 28 23 28 34 36 44 45 34 23 20 22 22 22 27 26 24 31 40 47 51 48 39 35 36 34 32 34 35 35 38 40 36 31 29 29 30 29 28 27 26 26 26 26 26 27 28 29 29 31 33 34 33 33 33 32 31 30 29 29 29 28 27 26 25 24 24
13 13 8 11 16 19 25 22 15 13 18 16 15 18 25 28 38 47 41 37 36 24 23 34 37 39 46 40 27 24 25 27 30 26 19 24 29 34 39 42 41 37 35 35 33 32 31 30 32 38 39 35 31 28 29 30 30 29 28 27 26 26 27 27 28 29 29 28 29 31 32 32 32 32 31 30 30 30 30 29 29 28 27 26 26 25
15 14 7 13 22 22 21 23 20 17 17 14 13 17 22 22 28 43 47 44 41 32 29 35 34 36 43 39 32 32 30 29 32 23 19 24 27 31 34 33 33 34 36 35 32 32 28 26 31 35 35 33 30 29 29 29 29 29 29 28 27 27 27 27 28 28 29 28 27 28 29 29 30 30 30 29 29 29 29 29 29 28 28 27 27 25
14 12 8 18 26 18 12 15 15 14 14 12 14 16 21 22 22 36 47 46 44 42 38 37 34 35 39 36 34 34 29 27 28 18 22 24 24 28 32 33 32 33 37 36 32 30 28 26 30 33 31 30 31 30 29 28 29 29 29 28 27 27 28 28 28 28 27 26 24 23 24 25 27 28 28 28 28 28 29 29 29 29 28 28 27 26
12 11 10 20 23 9 9 11 15 14 10 7 5 7 20 23 23 32 43 45 44 42 38 36 36 36 36 34 32 29 25 26 22 15 24 23 22 27 31 33 33 33 36 37 32 29 27 27 31 32 30 30 31 30 28 27 27 28 28 28 27 27 28 28 29 28 27 25 22 20 21 22 24 26 27 27 28 28 28 29 29 29 29 29 28 27
14 12 11 20 20 6 5 9 18 19 11 3 4 7 17 20 22 32 40 42 42 42 39 37 33 32 32 33 33 29 25 24 19 17 24 23 23 27 29 32 33 33 35 35 31 27 27 29 32 32 30 30 31 30 28 25 25 25 26 27 26 26 26 27 29 29 29 27 25 23 23 22 22 23 24 25 26 27 27 28 28 29 29 29 28 28
15 14 13 18 16 9 4 7 15 13 7 1 9 12 15 15 20 31 34 37 41 40 35 29 24 25 29 31 31 29 27 24 19 18 24 24 25 26 26 28 29 30 33 33 30 28 29 31 31 30 29 29 30 30 27 24 22 21 23 25 24 23 24 26 28 29 29 28 27 26 26 24 24 23 22 23 23 24 25 26 27 27 27 27 27 27
15 14 12 14 11 11 12 4 8 4 1 5 10 15 22 22 20 25 23 26 33 31 25 20 19 23 26 27 26 26 26 26 21 20 23 23 24 25 24 24 26 30 33 32 30 31 31 31 30 30 29 30 30 28 25 23 21 19 19 21 19 19 22 25 27 27 27 27 28 27 27 26 26 25 23 23 22 22 23 24 24 24 25 25 25 25
13 10 9 11 11 13 15 7 4 2 4 8 7 11 22 27 24 23 23 24 26 23 21 19 18 20 22 24 25 24 25 26 23 22 24 25 24 24 24 25 29 32 33 32 32 34 33 30 30 30 29 29 29 26 23 22 21 19 18 18 16 17 20 22 25 25 24 25 27 27 28 27 27 26 25 24 24 23 23 23 22 22 23 24 24 23
9 6 8 10 9 10 13 8 2 6 7 8 6 8 18 25 27 27 24 24 26 23 22 22 22 22 24 24 25 24 25 27 25 24 26 27 26 24 25 27 30 32 33 33 33 34 33 29 29 30 28 27 27 24 22 21 21 20 19 18 18 18 18 20 23 23 22 23 25 26 27 28 28 28 27 26 25 24 24 23 22 22 22 23 23 23
7 2 6 7 5 6 12 11 3 7 7 4 5 7 9 13 24 28 22 20 27 29 27 27 28 28 28 28 27 26 26 27 26 25 28 30 28 26 27 28 30 32 33 33 34 34 32 29 30 30 28 26 25 24 23 22 21 21 20 20 20 20 19 20 21 22 22 22 23 25 26 27 29 29 29 29 28 27 26 25 24 23 23 23 23 23
6 1 5 6 6 8 11 9 3 3 1 2 3 5 2 4 22 31 24 20 25 30 31 31 31 31 33 31 28 28 28 27 24 23 27 31 30 29 30 31 32 34 34 34 35 35 33 31 31 31 28 26 25 24 23 23 24 24 23 22 21 21 21 22 21 21 22 22 21 22 23 25 27 28 30 31 31 30 30 29 27 26 25 25 24 23
7 3 4 8 11 11 8 5 1 1 5 9 4 2 4 13 28 35 25 20 21 24 27 29 29 31 33 31 28 30 31 28 25 25 25 29 31 32 33 34 34 35 35 36 36 34 33 33 33 31 29 28 27 25 25 26 26 25 24 22 22 22 23 23 22 22 22 20 19 19 20 21 23 24 27 29 30 32 32 32 31 30 29 28 27 26
8 5 1 7 9 7 6 4 1 4 11 14 10 2 10 22 30 27 15 14 20 22 23 23 25 28 27 25 27 31 33 31 30 29 26 28 30 32 33 33 34 34 34 35 35 34 33 33 33 33 31 30 28 27 27 28 27 25 23 22 21 22 22 23 23 23 23 21 20 19 19 20 21 22 23 25 26 27 29 31 32 33 34 34 32 30
10 7 1 4 3 3 4 3 3 6 11 13 9 5 18 26 21 15 10 14 21 25 26 24 25 25 23 25 28 32 34 34 34 32 31 30 30 30 31 32 33 32 31 32 33 32 32 33 34 34 32 31 30 29 28 28 26 25 23 22 22 23 23 24 25 24 24 23 21 20 20 20 21 21 22 22 22 23 25 27 29 31 33 35 36 36
7 7 8 7 5 6 2 3 5 4 9 12 10 4 19 22 14 13 11 15 21 26 29 29 27 27 27 29 31 32 33 36 36 35 34 33 32 32 31 31 31 31 31 31 31 32 32 34 35 34 33 32 31 30 29 27 25 24 23 23 24 24 24 24 23 22 21 19 18 18 17 17 17 17 18 19 20 23 24 25 27 28 30 32 35 36
9 7 11 14 11 10 10 8 4 1 8 13 9 5 15 18 14 8 8 13 18 24 29 30 29 29 31 31 31 29 30 33 35 34 34 35 35 34 34 33 33 33 33 33 33 32 32 33 34 34 33 32 31 30 28 26 24 22 22 22 22 21 20 19 18 17 17 17 17 17 16 16 15 14 14 15 17 20 23 25 27 28 29 30 32 34
15 10 10 13 11 9 10 9 4 3 8 14 12 10 14 16 12 8 10 13 14 20 27 31 30 30 31 30 29 27 26 27 29 31 33 35 36 36 35 35 35 34 34 34 34 34 33 32 33 34 33 32 31 30 27 25 23 22 21 20 20 19 18 17 17 17 17 18 18 18 18 18 18 17 16 16 15 16 18 22 26 29 30 31 31 32
14 11 8 7 6 8 7 7 6 4 5 10 11 9 9 9 10 9 9 13 13 17 25 29 29 29 30 29 27 25 24 24 25 27 30 32 34 35 35 36 36 35 35 34 34 34 34 32 32 32 32 31 30 28 26 25 24 23 22 22 21 21 21 20 20 19 19 19 20 21 21 21 21 21 20 19 18 18 18 19 22 25 29 31 32 32
10 9 8 5 5 6 5 5 5 1 0 4 6 4 4 5 6 6 6 11 14 17 22 26 27 26 27 28 27 25 24 24 23 24 26 28 30 32 33 34 35 35 35 35 35 35 34 33 32 32 31 30 29 28 27 26 24 24 23 23 23 23 23 23 23 23 22 21 22 22 22 23 22 22 22 21 20 19 20 20 21 21 24 27 30 33
6 6 7 6 2 3 3 3 4 3 2 0 1 1 1 2 2 2 5 9 12 16 20 23 24 24 24 25 26 25 24 23 23 23 23 24 26 28 29 30 31 33 34 34 34 35 35 35 34 33 32 31 30 28 27 26 25 24 24 24 25 25 25 26 26 26 26 25 24 24 23 23 23 24 24 24 23 22 22 22 21 21 21 22 25 28
7 7 8 9 5 4 4 3 5 6 5 5 5 5 4 5 6 5 3 6 7 12 16 17 18 21 23 24 24 25 24 22 22 24 24 22 22 23 25 26 27 28 30 30 30 32 32 32 33 32 32 31 30 28 27 26 26 26 27 27 28 28 29 29 29 29 29 29 28 27 26 25 25 26 27 27 26 26 25 24 22 22 22 22 22 24
12 12 13 14 12 10 8 7 7 8 9 8 10 10 9 8 10 11 10 9 3 6 12 12 13 16 20 24 23 23 25 24 23 25 25 24 23 22 22 22 23 22 23 23 23 24 25 25 27 28 29 29 29 28 27 27 28 29 30 31 32 33 33 33 33 32 31 30 30 30 29 29 29 29 29 30 29 28 27 26 25 24 23 22 22 22
16 16 18 19 18 14 11 11 11 11 11 11 11 12 10 10 11 14 16 16 11 4 6 12 14 12 14 20 20 18 21 24 24 25 25 24 24 23 21 21 22 22 21 21 20 20 20 21 22 24 26 27 27 25 25 25 26 28 30 31 33 33 34 34 34 34 32 31 31 31 32 32 32 32 32 32 31 31 30 29 28 27 26 25 24 23
22 23 24 24 23 20 17 15 15 16 14 13 13 15 15 15 16 17 17 18 16 12 6 7 14 12 9 12 14 12 14 18 20 22 23 21 21 21 21 20 21 22 22 22 21 21 20 20 20 21 22 24 24 24 23 23 24 26 29 30 31 32 32 33 34 34 33 32 31 30 31 33 34 34 35 35 34 34 33 31 30 29 28 27 26 26
Wind_Direction
195 200 203 205 206 204 203 204 211 215 212 215 224 228 226 228 228 222 220 220 227 244 241 228 228 229 227 228 233 234 229 227 229 228 226 225 223 225 229 228 229 229 212 200 201 201 199 199 197 199 200 201 201 200 199 200 201 200 200 201 199 198 199 200 201 205 207 203 202 206 208 205 202 202 203 203 206 210 210 206 203 204 207 207 203 198
199 206 208 209 208 206 205 207 214 219 217 219 226 229 229 230 229 222 217 218 226 241 242 234 231 231 229 229 231 233 231 230 231 230 229 225 221 222 226 226 227 228 210 200 202 201 201 201 200 200 201 201 201 200 201 201 200 200 201 201 199 199 201 201 202 206 209 206 204 209 211 209 207 207 206 204 206 210 212 211 205 204 207 208 203 198
204 212 213 212 210 208 209 211 214 221 222 223 226 229 230 229 229 225 217 216 223 237 238 235 235 236 235 234 233 232 236 239 240 243 238 225 219 221 222 221 220 219 212 206 203 203 204 204 204 204 203 204 203 202 202 202 201 200 201 201 200 201 201 201 202 206 210 207 205 207 210 212 212 211 210 208 206 209 212 213 208 205 205 206 204 199
206 216 216 212 212 212 213 213 215 221 224 225 227 231 230 225 228 226 217 215 223 232 236 239 243 244 242 240 236 236 241 245 245 249 247 232 227 228 223 218 214 214 215 212 208 206 206 206 207 207 206 206 205 203 202 202 203 202 202 202 202 201 200 200 201 205 208 208 206 205 206 210 212 211 212 211 208 208 210 212 210 206 204 204 204 200
209 216 217 213 213 215 215 214 216 220 224 226 225 228 231 225 223 224 218 218 224 228 235 248 255 252 248 240 235 235 238 242 244 246 243 236 235 236 231 224 218 216 218 218 215 212 210 210 211 211 209 208 206 205 203 202 203 203 202 202 203 203 201 199 200 202 206 207 206 204 204 206 207 206 208 209 206 205 208 211 209 206 205 205 206 203
215 217 219 216 213 214 217 217 216 218 223 227 225 224 227 226 222 222 221 225 237 237 233 242 261 258 251 241 235 234 231 233 238 240 240 238 237 235 231 228 222 217 219 222 227 228 221 216 215 214 213 212 210 207 205 205 204 203 203 204 204 204 202 199 198 201 205 207 207 206 207 208 207 206 206 206 202 202 207 210 210 208 208 207 206 204
218 217 219 219 216 215 216 219 218 216 223 229 226 221 223 228 224 221 228 235 249 249 236 235 252 261 258 246 236 233 230 232 233 235 239 239 237 233 226 224 223 219 218 220 226 232 229 223 219 218 217 216 214 209 206 207 206 205 204 204 206 206 203 200 198 200 204 206 207 208 210 211 212 212 209 206 202 200 205 210 212 211 210 210 209 208
220 218 217 212 217 217 215 218 218 213 219 228 228 223 224 229 221 217 232 241 244 252 249 245 248 261 265 256 243 234 228 230 231 232 236 238 237 234 224 218 220 220 219 218 221 226 226 225 225 225 223 219 217 211 206 207 208 206 205 203 205 206 205 202 200 201 204 205 207 209 210 211 213 214 212 209 205 202 203 208 212 214 213 213 213 214
221 220 218 209 211 219 218 220 218 211 218 228 231 227 226 228 221 220 236 246 246 257 262 253 248 260 267 261 257 240 225 224 228 231 235 236 235 233 225 219 217 218 218 217 219 223 222 221 224 227 226 222 220 216 210 209 209 208 208 205 204 205 206 205 202 202 203 205 206 208 211 212 212 212 211 210 208 205 204 206 211 215 217 216 216 217
225 226 223 215 214 220 222 224 221 214 217 226 231 233 231 230 227 229 241 251 251 255 258 254 249 250 266 262 257 235 222 222 227 231 233 234 234 231 226 220 217 217 216 215 217 223 223 219 220 223 225 224 222 221 215 210 209 210 210 208 205 204 205 206 204 203 203 205 206 206 209 211 211 210 210 210 209 206 206 206 209 214 218 219 218 217
228 231 230 225 222 221 222 225 224 221 220 222 227 231 235 235 232 236 245 249 251 249 247 252 250 243 259 262 254 236 230 231 229 228 230 232 234 233 228 222 218 216 215 213 214 221 224 221 219 221 222 222 221 221 218 213 210 210 210 210 207 204 204 205 206 205 205 206 207 207 207 209 209 210 211 211 209 208 207 206 208 213 218 221 221 220
227 227 228 230 231 227 226 226 227 227 223 220 222 223 228 232 228 234 240 235 234 243 244 249 251 244 240 252 252 249 247 243 234 226 225 227 230 231 230 224 220 217 214 212 212 216 220 219 217 216 216 217 218 218 217 215 212 210 211 210 207 205 203 204 206 206 206 207 209 208 207 207 207 209 211 212 211 210 208 207 209 213 218 223 226 226
225 224 222 227 233 228 226 226 224 228 225 219 218 218 217 220 219 220 223 222 222 240 243 246 250 244 240 247 250 251 252 245 235 227 222 224 226 226 227 225 220 218 216 213 211 213 216 217 215 214 212 212 212 213 214 214 214 212 211 210 207 205 204 204 206 207 207 207 208 208 207 207 207 208 210 211 212 211 209 208 209 213 219 225 231 234
224 228 226 225 229 225 222 221 217 219 221 216 212 211 208 198 204 213 205 224 233 234 241 245 248 245 243 248 246 244 248 248 240 230 224 225 226 224 226 225 222 219 218 217 213 212 215 217 217 215 213 210 209 210 211 213 215 214 212 211 207 205 204 205 206 207 208 207 207 208 208 208 208 209 209 210 211 211 210 210 209 211 217 224 231 237
217 222 224 221 222 223 222 222 219 217 219 217 212 210 213 213 209 206 185 193 203 220 238 240 237 230 235 243 244 240 241 247 246 234 227 229 230 229 230 227 223 221 222 222 217 214 217 219 219 217 215 212 210 209 209 211 214 214 214 213 209 205 203 205 206 207 208 208 207 207 208 209 210 210 210 210 212 213 213 212 210 211 214 218 224 232
222 222 224 221 221 222 223 225 223 218 218 221 214 210 217 219 215 214 225 220 204 207 234 230 220 216 241 246 245 241 238 240 245 238 229 229 231 232 232 229 227 225 226 227 223 219 219 220 220 218 218 216 212 210 210 212 214 214 214 214 212 208 205 205 206 207 208 207 207 207 207 209 211 211 211 211 212 214 216 216 214 213 214 217 220 226
251 233 221 218 222 220 220 222 220 215 213 215 212 211 217 221 218 219 237 235 215 211 231 226 220 223 238 244 237 236 239 232 235 237 229 228 230 230 230 231 232 230 229 229 228 226 224 222 221 220 221 219 215 214 214 214 215 214 215 215 213 211 207 207 207 207 207 207 207 208 208 210 212 212 212 212 212 215 217 219 219 216 215 216 218 222
332 270 221 203 215 218 217 221 222 219 215 210 210 215 216 218 222 224 229 235 210 218 238 223 217 210 211 224 226 229 235 227 223 227 226 227 229 229 230 232 235 236 233 230 230 231 230 227 224 222 223 223 220 218 218 217 215 214 215 215 215 214 210 208 207 207 207 207 208 208 209 210 212 213 213 213 212 213 216 219 221 220 218 217 217 220
336 299 227 201 207 214 212 217 223 223 221 218 219 220 211 205 215 217 218 228 211 222 267 222 215 212 211 215 215 222 230 229 221 216 218 225 229 231 232 232 235 238 238 234 231 232 232 230 226 223 223 225 222 218 218 216 213 213 213 215 216 216 214 211 209 208 208 208 208 208 209 211 212 214 214 214 214 214 215 216 219 221 220 220 219 220
350 323 240 204 202 210 210 211 216 217 218 220 224 227 218 213 213 211 212 221 215 208 251 235 221 222 226 227 222 221 227 230 226 219 216 220 226 230 231 233 236 237 238 238 235 234 234 232 228 225 223 224 220 216 215 212 211 213 212 212 214 215 215 214 211 210 210 210 209 208 209 211 212 214 215 216 216 216 215 214 216 218 220 221 221 220
355 338 283 216 198 204 208 207 213 215 212 213 216 218 217 216 216 215 218 222 226 221 183 213 252 244 239 239 235 229 226 229 229 223 220 219 223 228 228 229 232 233 235 237 237 235 233 231 228 224 222 221 218 214 212 210 212 215 215 213 213 214 216 215 213 211 210 210 210 209 210 211 212 214 215 217 218 218 216 215 215 216 217 220 220 219
347 333 303 252 218 208 207 206 210 215 215 214 214 214 214 212 206 206 217 220 223 233 226 203 279 259 249 245 244 241 235 233 231 228 224 222 223 227 227 223 221 223 229 233 234 233 231 230 226 222 220 219 215 213 210 208 210 213 215 215 214 214 217 217 216 214 212 211 211 211 211 211 212 213 215 217 219 219 218 217 216 216 216 218 219 218
338 329 306 269 246 216 204 205 206 209 214 218 219 218 217 214 208 205 206 210 211 224 244 242 289 264 252 247 249 248 240 236 234 232 231 227 226 226 224 220 215 216 224 229 231 228 226 229 225 219 219 217 213 212 209 206 206 206 208 211 214 216 217 219 219 217 215 214 213 212 212 211 211 213 215 217 219 219 219 218 217 217 217 218 218 218
338 335 326 284 254 221 205 206 205 203 210 223 227 222 218 216 216 216 218 215 204 210 227 231 272 257 246 238 245 246 237 236 235 232 232 230 228 227 223 221 216 214 217 223 227 225 226 230 224 217 217 217 213 211 208 205 203 203 204 206 210 213 215 218 220 220 219 217 215 214 213 212 212 213 215 217 219 220 219 218 217 217 217 217 217 217
329 325 335 320 274 228 213 212 215 215 220 236 240 228 221 219 220 220 220 219 215 216 218 211 244 245 234 221 237 238 231 233 238 246 246 235 229 226 224 223 222 217 212 215 223 226 230 234 226 217 216 216 212 210 209 205 203 205 207 207 208 210 211 215 218 222 223 221 218 216 215 214 213 214 215 217 219 219 218 218 217 216 216 217 218 218
297 295 312 313 276 229 228 224 224 235 240 232 226 224 222 221 220 219 216 211 214 221 216 212 235 242 241 242 241 235 231 235 254 279 275 251 229 223 223 225 226 219 209 211 220 225 231 235 229 219 216 215 212 211 210 208 206 209 210 209 209 210 211 214 217 221 224 223 221 219 217 216 215 215 216 217 218 218 218 218 218 217 216 217 219 219
271 285 296 288 269 263 273 265 229 284 279 240 219 215 218 221 222 219 214 211 215 218 216 221 234 243 248 250 237 222 228 244 277 291 275 244 223 217 219 224 226 220 211 211 218 222 229 234 229 221 216 214 213 213 213 210 210 212 213 211 210 211 213 216 217 220 223 224 224 221 219 218 217 218 218 219 219 219 218 219 218 218 218 218 220 221
265 278 288 296 293 291 287 267 238 265 277 250 231 222 214 218 221 217 214 216 218 215 218 229 234 241 250 249 235 231 245 264 285 287 253 225 219 214 214 218 221 218 210 207 211 217 223 227 223 219 215 213 213 215 214 212 211 213 214 213 211 210 213 215 217 219 222 224 224 222 221 221 220 220 220 221 222 221 221 221 220 220 220 220 222 222
266 272 291 316 307 301 284 259 248 265 271 261 278 264 232 222 222 218 216 218 221 221 226 233 233 238 247 247 246 255 265 277 284 271 219 213 218 212 211 213 213 209 204 203 208 213 213 213 215 214 211 211 213 213 212 211 211 212 214 213 210 209 211 214 216 218 220 223 223 222 222 223 222 222 222 222 223 223 224 224 223 223 223 223 225 224
260 267 306 326 315 298 257 246 252 263 269 277 302 286 243 224 220 218 216 217 223 228 233 237 237 240 247 251 257 266 269 275 279 245 195 201 212 209 209 209 206 204 202 203 207 209 208 206 208 208 206 209 211 209 208 209 208 209 211 211 210 208 210 212 215 218 220 222 221 220 221 222 222 223 222 222 223 224 226 226 225 225 226 227 228 227
244 260 309 330 324 294 203 225 232 226 253 303 325 240 220 213 213 215 213 214 221 226 230 236 238 242 248 252 258 263 263 268 270 217 184 195 205 204 205 204 202 202 204 206 208 208 206 202 203 204 205 208 209 205 204 205 205 206 209 212 212 210 211 213 215 218 221 222 221 220 220 220 221 222 222 223 223 224 225 226 227 228 228 229 230 230
238 259 307 334 327 296 184 233 228 215 224 304 54 155 189 198 202 204 205 208 215 221 226 231 236 240 244 247 253 259 260 265 260 209 188 194 200 202 203 201 201 203 205 205 204 202 198 196 200 203 203 206 206 203 200 198 198 202 207 212 213 212 213 215 216 217 220 220 221 222 223 222 222 223 222 223 224 225 226 227 228 228 229 231 232 232
241 264 307 337 324 303 326 270 233 219 220 327 48 90 130 155 183 191 195 202 209 217 223 226 232 238 241 243 248 255 258 258 245 206 193 198 203 206 207 204 202 202 200 197 195 192 192 193 197 199 202 204 204 200 195 192 192 197 202 207 211 211 213 217 218 218 218 218 219 223 225 225 226 226 225 225 225 226 227 227 229 229 230 231 232 233
242 262 307 338 315 310 345 325 212 220 120 102 64 83 108 119 150 166 170 186 200 207 212 217 225 232 236 238 238 244 250 248 236 211 201 203 206 208 208 204 199 196 194 194 193 190 189 192 195 198 201 202 200 197 192 190 194 197 197 200 204 208 213 218 220 219 218 217 219 223 224 226 229 229 229 229 229 228 227 228 229 230 230 231 232 234
243 266 308 327 304 313 349 22 151 130 112 127 90 85 104 111 126 135 139 161 177 184 191 200 208 211 217 223 223 228 235 234 232 223 211 206 207 206 204 199 194 191 191 194 195 191 189 192 195 198 199 198 196 194 192 192 196 198 196 195 201 208 214 217 220 221 219 216 218 222 224 226 229 229 230 231 231 229 228 228 228 229 230 231 232 234
241 285 314 321 314 320 342 355 153 149 138 151 157 119 108 113 123 123 124 142 154 164 176 179 177 180 188 196 200 206 214 220 228 227 214 207 206 203 199 198 195 193 192 195 197 195 193 193 197 199 197 194 194 194 193 194 197 196 195 198 206 212 215 217 220 220 218 215 215 219 223 226 228 229 229 230 231 231 229 229 228 228 230 231 232 233
223 289 330 329 335 329 331 330 273 165 138 132 143 118 86 99 118 115 102 113 139 156 163 158 155 159 168 180 185 186 194 209 219 218 211 207 203 197 194 196 197 196 196 197 200 200 197 196 199 199 196 193 194 194 195 197 199 198 197 203 211 215 219 222 223 220 217 214 213 216 220 224 227 229 230 230 231 231 231 231 230 230 231 232 232 232
183 89 351 313 304 325 334 339 326 175 144 2 100 96 25 109 119 115 103 102 130 148 150 148 148 148 155 167 170 169 183 199 198 191 195 199 197 193 193 196 199 200 200 202 204 204 201 199 199 197 194 192 191 193 196 199 201 200 201 205 211 216 223 227 228 226 220 213 211 213 217 221 225 227 229 231 232 233 233 233 233 232 232 233 233 232
149 78 358 283 283 305 315 324 341 72 350 328 321 83 170 152 127 119 108 89 106 133 142 144 148 148 150 154 152 158 178 185 165 156 173 187 190 192 194 198 201 202 203 206 208 208 204 201 199 197 193 191 189 193 201 203 203 204 206 210 215 221 228 232 232 231 227 219 213 213 215 218 222 224 227 230 232 233 235 235 234 234 234 234 233 233
127 113 329 271 279 293 284 281 112 58 3 338 323 17 145 147 133 126 114 70 83 113 126 135 147 151 151 152 152 159 170 165 147 143 159 173 182 189 194 199 203 203 204 207 209 209 205 200 199 199 198 197 197 202 209 210 209 211 214 219 224 230 236 239 238 235 230 223 217 214 214 215 217 220 222 225 228 231 233 234 235 235 236 236 235 235
111 108 70 278 298 324 272 232 130 64 11 350 349 95 148 150 128 105 100 77 81 99 109 121 140 146 147 155 156 151 150 149 145 146 153 162 172 181 187 194 199 202 204 205 205 205 202 199 200 203 205 206 206 210 215 218 217 219 223 226 230 235 239 242 241 237 231 227 223 220 219 216 213 213 215 218 222 225 228 231 233 234 235 237 237 237
100 80 42 23 27 29 30 160 144 63 17 6 4 109 153 146 101 69 95 97 87 96 108 120 133 139 143 151 150 141 140 145 148 148 150 156 163 169 174 181 188 192 195 197 198 199 200 201 203 207 210 211 212 215 219 220 220 222 225 228 230 233 236 238 238 237 234 232 232 231 229 226 221 217 215 214 216 220 223 226 229 231 233 235 236 237
76 74 46 33 30 35 54 82 113 17 24 28 27 113 133 118 93 84 130 120 95 97 113 124 131 135 140 144 144 140 140 145 147 148 150 154 157 161 164 169 175 179 182 185 188 191 196 202 206 209 211 212 212 215 216 216 216 217 219 222 225 227 228 230 233 235 236 237 238 240 241 241 240 238 234 228 223 221 222 224 227 230 231 231 233 235
62 65 42 25 25 37 52 64 59 21 43 53 70 102 106 105 110 119 140 142 111 96 112 126 131 134 139 141 143 144 144 145 147 149 151 153 155 156 159 162 166 170 173 178 183 186 191 198 203 205 207 207 208 209 210 210 212 214 215 218 221 224 227 229 233 236 239 241 242 245 249 251 252 251 249 247 242 236 231 228 228 231 233 233 232 232
55 57 38 20 47 68 74 81 73 50 57 74 87 95 92 108 123 115 128 152 134 101 108 122 128 134 139 141 142 147 149 149 149 150 152 154 154 156 158 160 163 165 167 171 177 181 183 188 193 196 199 201 202 202 204 207 210 213 217 220 224 227 230 231 232 235 238 241 242 243 246 250 253 255 254 253 251 248 245 240 235 233 235 237 238 236
65 67 51 44 90 109 111 109 103 82 43 94 101 99 74 91 111 102 113 142 139 117 109 113 119 128 137 141 142 146 150 151 152 152 153 155 156 157 159 161 163 165 167 169 173 177 179 183 187 190 192 195 197 199 203 207 211 216 221 226 230 233 235 236 237 237 238 240 241 243 243 243 246 250 254 255 255 253 252 250 246 241 238 239 241 243
69 60 32 19 64 154 170 165 175 215 259 277 141 145 67 47 27 53 85 107 127 127 114 107 110 119 130 138 139 138 141 148 154 155 154 156 160 161 162 164 166 167 169 172 175 178 181 184 187 189 191 194 199 203 207 211 216 221 226 232 236 240 243 245 246 245 242 242 243 244 245 243 243 246 250 254 257 257 257 255 253 252 249 246 244 244
13 357 348 342 320 264 259 243 217 230 264 288 295 303 311 317 312 308 9 53 100 131 126 112 107 113 123 132 133 131 132 136 142 144 143 147 155 159 162 166 169 171 174 176 179 182 185 187 189 191 194 198 202 208 213 218 224 228 233 238 241 244 248 250 252 251 247 245 245 245 245 246 246 247 250 253 256 259 260 260 259 258 258 257 253 249
349 335 329 324 310 291 290 289 259 242 247 265 287 298 298 302 307 300 302 322 345 144 145 135 119 112 120 126 126 127 129 128 127 128 131 138 147 150 152 159 165 170 175 179 182 186 190 193 195 198 201 205 210 215 221 227 233 237 240 242 243 245 247 249 251 252 250 247 246 244 243 244 245 247 249 252 256 259 260 262 263 263 263 262 260 257
2 353 343 331 317 303 298 299 286 264 247 247 262 274 274 278 288 293 297 302 302 275 168 153 144 126 119 123 123 123 126 127 127 127 130 138 148 150 150 155 162 168 175 180 185 190 196 201 204 206 209 212 216 222 228 234 239 242 244 245 245 246 246 247 249 251 250 249 248 246 245 245 245 246 249 252 255 258 260 262 264 265 265 263 262 260
9 0 351 337 322 309 300 292 281 268 257 245 242 247 250 256 268 281 294 298 293 288 272 181 160 152 136 130 128 122 120 124 128 130 131 135 144 149 151 156 164 172 180 186 192 197 202 208 213 216 219 222 225 230 236 241 244 246 246 247 247 247 246 246 248 249 250 250 249 249 249 248 248 248 250 252 254 256 260 263 265 266 265 264 263 261
Height
3104 3103 3100 3097 3096 3099 3105 3109 3112 3116 3120 3122 3124 3125 3126 3128 3128 3130 3132 3134 3137 3137 3136 3138 3139 3140 3142 3142 3142 3143 3144 3146 3147 3149 3150 3151 3152 3153 3154 3156 3157 3158 3161 3163 3165 3166 3168 3169 3171 3173 3175 3176 3178 3180 3182 3183 3185 3187 3189 3191 3193 3195 3197 3198 3200 3202 3204 3206 3208 3209 3210 3212 3214 3216 3217 3219 3220 3221 3223 3224 3225 3226 3227 3228 3228 3229
3101 3097 3092 3092 3096 3103 3108 3112 3115 3117 3119 3121 3123 3124 3125 3125 3126 3129 3131 3133 3136 3136 3135 3136 3138 3139 3140 3141 3141 3142 3142 3143 3144 3146 3147 3148 3149 3151 3152 3154 3156 3157 3160 3162 3163 3164 3166 3167 3169 3171 3173 3174 3176 3178 3180 3181 3184 3186 3187 3189 3191 3193 3195 3197 3199 3201 3203 3205 3207 3209 3211 3213 3214 3215 3217 3219 3220 3221 3222 3223 3224 3225 3226 3227 3228 3229
3096 3090 3089 3095 3101 3106 3109 3112 3114 3116 3118 3119 3120 3122 3122 3123 3125 3127 3129 3131 3133 3133 3133 3135 3136 3136 3138 3139 3140 3140 3139 3140 3141 3143 3145 3146 3147 3149 3150 3152 3154 3156 3158 3159 3161 3162 3163 3165 3167 3168 3170 3172 3174 3176 3178 3180 3182 3184 3185 3187 3189 3191 3193 3195 3198 3200 3202 3204 3207 3209 3211 3212 3214 3215 3216 3218 3219 3220 3221 3222 3223 3224 3226 3226 3227 3228
3089 3085 3090 3098 3102 3105 3108 3110 3113 3114 3116 3116 3118 3119 3118 3120 3124 3125 3127 3130 3131 3131 3131 3132 3133 3134 3135 3136 3137 3136 3136 3138 3140 3141 3143 3145 3145 3146 3148 3149 3152 3153 3155 3157 3158 3160 3161 3163 3164 3165 3167 3170 3172 3174 3176 3178 3180 3182 3184 3185 3187 3189 3192 3194 3196 3199 3201 3203 3205 3207 3209 3210 3212 3213 3214 3215 3216 3218 3219 3221 3222 3223 3225 3226 3227 3228
3085 3086 3091 3098 3100 3103 3106 3108 3110 3112 3112 3113 3114 3114 3115 3119 3122 3123 3126 3129 3129 3129 3129 3130 3131 3129 3131 3132 3133 3134 3135 3136 3138 3139 3141 3143 3143 3145 3146 3148 3150 3152 3153 3155 3157 3158 3160 3160 3161 3163 3165 3167 3169 3172 3174 3176 3178 3180 3182 3184 3186 3188 3190 3192 3195 3197 3199 3201 3202 3204 3206 3207 3208 3209 3210 3212 3214 3216 3218 3220 3221 3223 3224 3225 3226 3227
3086 3088 3092 3095 3098 3100 3103 3104 3107 3108 3110 3111 3110 3110 3113 3118 3120 3123 3126 3127 3127 3126 3126 3130 3129 3124 3126 3128 3129 3132 3133 3133 3135 3136 3137 3139 3141 3143 3144 3146 3149 3150 3152 3154 3155 3157 3158 3159 3160 3162 3163 3165 3167 3169 3172 3174 3176 3179 3181 3183 3185 3187 3189 3191 3193 3195 3197 3199 3200 3202 3203 3204 3205 3207 3208 3210 3213 3216 3218 3220 3221 3222 3223 3224 3225 3226
3084 3088 3091 3093 3095 3098 3100 3102 3103 3107 3110 3107 3104 3108 3114 3117 3120 3122 3124 3126 3126 3124 3125 3129 3128 3123 3122 3123 3125 3128 3129 3130 3131 3132 3133 3136 3138 3139 3141 3143 3146 3148 3150 3151 3153 3155 3156 3158 3159 3159 3161 3163 3165 3168 3170 3172 3175 3177 3179 3182 3184 3185 3187 3189 3191 3193 3195 3196 3198 3200 3202 3204 3206 3207 3209 3211 3214 3216 3218 3220 3221 3221 3222 3223 3224 3225
3080 3086 3088 3091 3093 3095 3096 3096 3098 3104 3106 3100 3101 3110 3114 3115 3118 3120 3122 3124 3124 3124 3123 3124 3126 3123 3117 3118 3121 3124 3125 3126 3127 3127 3129 3131 3134 3136 3138 3140 3142 3145 3147 3149 3150 3152 3154 3155 3156 3157 3159 3161 3163 3166 3169 3171 3172 3175 3177 3179 3182 3184 3185 3187 3189 3191 3193 3195 3197 3199 3201 3203 3205 3207 3209 3212 3214 3215 3217 3218 3219 3220 3221 3223 3224 3224
3078 3081 3082 3088 3090 3089 3088 3090 3095 3101 3101 3098 3103 3110 3112 3115 3117 3118 3121 3122 3123 3124 3119 3118 3124 3122 3114 3113 3118 3120 3120 3120 3120 3122 3125 3127 3130 3132 3135 3137 3139 3142 3144 3146 3148 3149 3151 3152 3154 3155 3158 3160 3162 3165 3167 3169 3171 3173 3175 3177 3179 3182 3184 3185 3187 3189 3191 3193 3195 3197 3199 3201 3203 3206 3208 3210 3212 3213 3215 3217 3218 3219 3220 3221 3222 3223
3077 3077 3081 3086 3086 3084 3086 3090 3095 3099 3099 3101 3106 3109 3111 3114 3116 3118 3120 3120 3123 3121 3113 3112 3119 3120 3112 3109 3114 3115 3113 3113 3115 3118 3121 3123 3126 3128 3131 3134 3136 3139 3142 3144 3146 3147 3149 3151 3153 3155 3157 3159 3161 3163 3165 3167 3169 3171 3173 3175 3176 3179 3181 3183 3185 3187 3189 3191 3193 3195 3197 3199 3202 3204 3206 3207 3209 3211 3213 3215 3217 3218 3219 3220 3221 3222
3076 3078 3081 3082 3081 3083 3087 3091 3094 3097 3099 3103 3107 3109 3111 3113 3114 3117 3117 3120 3121 3114 3107 3108 3114 3119 3113 3104 3107 3109 3106 3109 3113 3115 3118 3120 3123 3125 3127 3131 3133 3136 3139 3141 3144 3146 3148 3150 3152 3154 3155 3157 3159 3161 3163 3165 3167 3169 3171 3173 3174 3177 3179 3181 3183 3185 3187 3189 3191 3193 3196 3198 3200 3202 3204 3206 3207 3209 3211 3213 3215 3217 3218 3219 3220 3221
3075 3077 3077 3077 3080 3084 3088 3090 3093 3095 3099 3102 3105 3108 3110 3110 3113 3114 3114 3117 3114 3105 3103 3106 3110 3115 3108 3099 3101 3104 3104 3107 3110 3112 3114 3117 3119 3121 3123 3126 3130 3133 3136 3138 3141 3143 3146 3148 3150 3151 3152 3154 3156 3158 3160 3162 3164 3166 3169 3171 3173 3175 3177 3179 3180 3183 3185 3187 3189 3192 3194 3197 3199 3201 3202 3204 3206 3208 3210 3212 3214 3216 3217 3218 3219 3220
3071 3073 3074 3076 3079 3082 3085 3087 3090 3093 3096 3099 3102 3105 3107 3108 3109 3110 3109 3108 3104 3101 3102 3105 3108 3106 3099 3096 3099 3101 3103 3104 3106 3108 3111 3113 3115 3117 3118 3122 3126 3130 3133 3136 3138 3141 3143 3145 3147 3148 3150 3151 3153 3155 3157 3160 3162 3164 3166 3169 3171 3173 3175 3177 3178 3180 3183 3185 3187 3190 3193 3195 3197 3199 3201 3203 3205 3207 3209 3211 3213 3214 3216 3217 3218 3219
3067 3070 3072 3075 3076 3077 3080 3081 3084 3087 3090 3093 3096 3099 3100 3102 3104 3104 3103 3101 3100 3100 3100 3103 3105 3098 3091 3093 3095 3097 3100 3102 3104 3106 3108 3110 3112 3113 3115 3118 3122 3126 3130 3133 3136 3138 3141 3142 3144 3146 3148 3149 3150 3152 3155 3157 3159 3162 3164 3166 3168 3171 3173 3175 3177 3178 3181 3183 3186 3189 3191 3193 3195 3197 3199 3202 3204 3206 3208 3209 3211 3213 3215 3216 3217 3218
3062 3062 3063 3067 3069 3072 3075 3076 3079 3083 3087 3088 3091 3095 3095 3093 3094 3096 3097 3097 3097 3098 3098 3099 3098 3089 3085 3088 3090 3094 3098 3100 3101 3103 3106 3109 3110 3111 3114 3115 3119 3123 3127 3130 3133 3136 3138 3140 3142 3144 3146 3147 3148 3150 3152 3154 3157 3159 3161 3164 3166 3169 3171 3173 3175 3177 3179 3182 3184 3187 3189 3191 3193 3195 3198 3200 3202 3204 3206 3208 3210 3211 3213 3214 3216 3217
3055 3053 3056 3062 3065 3069 3072 3073 3077 3082 3084 3084 3088 3091 3087 3084 3089 3093 3094 3094 3095 3097 3094 3090 3087 3083 3084 3086 3089 3093 3095 3096 3099 3099 3103 3106 3107 3110 3113 3114 3117 3121 3124 3127 3130 3133 3135 3137 3140 3142 3144 3145 3147 3148 3150 3152 3154 3156 3159 3161 3164 3167 3169 3172 3174 3176 3178 3181 3183 3185 3188 3190 3192 3194 3196 3198 3200 3202 3204 3206 3208 3209 3211 3213 3214 3216
3054 3050 3053 3060 3061 3064 3067 3069 3073 3076 3076 3079 3083 3080 3078 3083 3091 3094 3092 3092 3094 3092 3085 3081 3081 3082 3084 3084 3085 3089 3091 3093 3096 3096 3099 3101 3104 3108 3110 3112 3115 3117 3121 3125 3127 3130 3133 3135 3138 3140 3142 3144 3145 3146 3147 3149 3151 3154 3156 3159 3162 3165 3168 3170 3172 3174 3177 3179 3181 3183 3186 3188 3190 3192 3194 3196 3199 3201 3203 3204 3206 3208 3209 3210 3212 3213
3056 3047 3046 3053 3056 3058 3064 3068 3070 3071 3072 3075 3075 3073 3080 3089 3091 3091 3091 3090 3090 3087 3080 3078 3079 3080 3081 3079 3081 3085 3088 3089 3092 3094 3096 3098 3101 3104 3106 3109 3112 3114 3118 3122 3125 3128 3130 3133 3135 3137 3140 3141 3143 3144 3145 3147 3150 3152 3155 3158 3160 3163 3165 3168 3170 3173 3175 3177 3179 3181 3183 3186 3188 3190 3193 3195 3197 3199 3200 3202 3204 3206 3207 3209 3210 3211
3056 3048 3044 3049 3053 3055 3062 3066 3067 3068 3071 3072 3071 3073 3080 3084 3082 3084 3086 3084 3085 3084 3079 3076 3077 3076 3076 3075 3077 3081 3084 3087 3089 3092 3094 3096 3098 3100 3103 3106 3109 3112 3115 3118 3122 3125 3127 3130 3132 3135 3137 3139 3141 3143 3144 3147 3149 3151 3154 3156 3159 3161 3164 3167 3169 3171 3173 3175 3177 3179 3181 3184 3186 3188 3191 3193 3195 3196 3198 3200 3202 3204 3205 3207 3209 3210
3056 3053 3046 3045 3049 3052 3055 3058 3060 3062 3066 3069 3072 3075 3077 3076 3075 3078 3079 3078 3080 3081 3078 3076 3074 3071 3071 3073 3076 3079 3082 3085 3087 3089 3092 3094 3096 3097 3100 3104 3106 3109 3112 3114 3118 3122 3124 3127 3129 3132 3135 3137 3140 3141 3143 3145 3147 3149 3152 3154 3157 3159 3162 3165 3167 3169 3171 3173 3175 3177 3179 3181 3184 3186 3189 3191 3193 3194 3196 3198 3200 3202 3204 3205 3207 3208
3054 3054 3048 3042 3044 3047 3048 3051 3053 3057 3061 3063 3066 3068 3070 3071 3073 3075 3076 3076 3077 3077 3076 3076 3072 3066 3068 3072 3074 3077 3081 3084 3086 3088 3090 3093 3094 3096 3098 3102 3104 3106 3109 3111 3115 3118 3121 3124 3126 3130 3133 3136 3138 3140 3141 3143 3145 3147 3150 3152 3155 3157 3159 3162 3164 3167 3169 3171 3174 3175 3177 3179 3181 3184 3186 3189 3190 3192 3194 3196 3198 3200 3202 3203 3204 3206
3053 3052 3048 3042 3040 3042 3044 3048 3052 3055 3058 3060 3061 3062 3064 3066 3069 3073 3073 3072 3073 3074 3073 3074 3069 3062 3065 3070 3072 3075 3079 3081 3084 3086 3088 3091 3093 3094 3096 3099 3102 3104 3106 3108 3111 3115 3117 3120 3124 3127 3131 3134 3136 3138 3139 3141 3143 3145 3148 3150 3153 3155 3158 3160 3162 3165 3167 3170 3171 3173 3175 3177 3179 3182 3184 3186 3188 3190 3192 3194 3196 3198 3199 3201 3202 3204
3053 3051 3048 3042 3037 3038 3041 3045 3049 3051 3054 3056 3058 3060 3063 3065 3066 3066 3066 3066 3070 3072 3072 3073 3068 3058 3060 3068 3070 3072 3075 3078 3081 3083 3085 3088 3090 3091 3093 3096 3099 3101 3103 3106 3108 3111 3114 3116 3121 3125 3128 3131 3133 3135 3137 3138 3141 3143 3146 3149 3151 3153 3156 3159 3161 3164 3166 3168 3170 3172 3174 3175 3177 3179 3181 3183 3186 3188 3191 3192 3194 3196 3197 3199 3201 3202
3052 3050 3048 3042 3037 3038 3041 3044 3046 3049 3052 3053 3054 3057 3060 3061 3061 3062 3063 3064 3068 3069 3069 3073 3069 3057 3055 3064 3067 3069 3072 3074 3077 3080 3082 3084 3086 3089 3091 3093 3096 3099 3101 3104 3106 3108 3111 3113 3118 3122 3125 3128 3131 3132 3134 3136 3139 3142 3144 3147 3149 3152 3155 3158 3160 3162 3163 3165 3168 3170 3172 3173 3175 3177 3178 3181 3183 3186 3189 3191 3193 3194 3196 3198 3199 3200
3051 3050 3049 3046 3042 3040 3040 3042 3044 3046 3048 3049 3050 3053 3056 3058 3060 3061 3063 3065 3065 3065 3066 3070 3066 3056 3054 3060 3064 3066 3069 3071 3074 3076 3078 3079 3081 3084 3088 3090 3093 3096 3099 3101 3103 3105 3107 3109 3114 3119 3122 3126 3128 3130 3132 3134 3137 3140 3142 3145 3148 3151 3153 3156 3158 3160 3161 3163 3166 3167 3169 3171 3173 3174 3176 3178 3181 3184 3187 3189 3191 3192 3194 3196 3197 3199
3051 3050 3050 3049 3047 3041 3037 3038 3040 3041 3042 3044 3046 3049 3052 3054 3057 3058 3060 3062 3060 3060 3064 3065 3060 3055 3055 3058 3061 3063 3066 3067 3070 3072 3072 3072 3074 3078 3083 3086 3089 3093 3096 3098 3100 3103 3104 3106 3111 3116 3120 3123 3126 3128 3130 3132 3135 3138 3140 3143 3146 3149 3151 3154 3156 3157 3159 3161 3163 3165 3167 3169 3171 3172 3174 3176 3179 3182 3184 3187 3189 3191 3193 3194 3196 3197
3049 3048 3048 3048 3046 3041 3037 3036 3038 3040 3040 3040 3041 3044 3046 3050 3053 3056 3057 3056 3056 3059 3060 3059 3058 3057 3056 3056 3058 3061 3063 3063 3064 3065 3066 3067 3069 3072 3077 3081 3085 3089 3093 3096 3098 3101 3102 3104 3109 3113 3117 3121 3124 3126 3128 3130 3133 3136 3138 3141 3144 3147 3150 3152 3154 3156 3157 3159 3161 3163 3165 3167 3169 3170 3172 3175 3177 3180 3182 3184 3186 3188 3191 3193 3194 3196
3047 3045 3045 3045 3043 3040 3038 3035 3037 3039 3038 3037 3039 3041 3042 3045 3049 3051 3050 3051 3055 3058 3056 3056 3060 3060 3054 3053 3056 3058 3060 3061 3061 3061 3063 3064 3066 3068 3072 3076 3081 3086 3089 3093 3096 3098 3100 3102 3106 3110 3114 3118 3121 3124 3126 3129 3131 3134 3137 3139 3142 3145 3147 3150 3152 3154 3155 3157 3158 3160 3163 3165 3167 3169 3171 3174 3176 3178 3179 3181 3183 3186 3188 3190 3192 3194
3044 3042 3042 3042 3039 3037 3036 3035 3036 3038 3037 3037 3038 3038 3038 3040 3043 3044 3046 3050 3054 3054 3052 3055 3060 3058 3052 3051 3054 3057 3059 3060 3058 3058 3060 3062 3063 3066 3069 3074 3078 3082 3086 3090 3093 3096 3098 3101 3104 3108 3112 3116 3119 3121 3124 3127 3129 3132 3135 3137 3140 3143 3146 3148 3150 3152 3154 3155 3156 3159 3161 3164 3166 3168 3170 3172 3174 3175 3177 3179 3181 3183 3185 3187 3189 3192
3041 3040 3039 3038 3035 3032 3033 3035 3036 3036 3036 3036 3036 3034 3033 3035 3038 3041 3045 3049 3052 3051 3053 3056 3057 3055 3052 3052 3055 3057 3058 3058 3056 3056 3058 3060 3062 3065 3068 3072 3075 3079 3083 3088 3091 3094 3097 3100 3103 3106 3110 3114 3117 3119 3122 3125 3128 3130 3133 3135 3138 3141 3144 3146 3148 3150 3152 3153 3155 3158 3160 3162 3164 3166 3168 3170 3172 3174 3175 3177 3178 3180 3182 3184 3187 3189
3039 3037 3037 3036 3032 3030 3031 3032 3033 3033 3034 3035 3033 3030 3030 3033 3036 3041 3045 3047 3049 3050 3053 3055 3054 3053 3053 3054 3055 3055 3055 3056 3055 3055 3057 3059 3062 3065 3067 3070 3074 3078 3082 3086 3089 3092 3096 3099 3101 3105 3108 3112 3115 3118 3121 3124 3127 3129 3131 3134 3137 3140 3142 3144 3146 3148 3150 3152 3155 3157 3159 3160 3162 3164 3166 3168 3170 3171 3173 3174 3176 3177 3179 3181 3184 3186
3036 3036 3036 3035 3031 3028 3029 3029 3030 3031 3032 3032 3029 3026 3027 3030 3034 3038 3041 3042 3045 3047 3050 3051 3051 3051 3052 3052 3052 3052 3053 3054 3054 3055 3057 3059 3062 3064 3067 3069 3073 3076 3080 3084 3088 3091 3094 3097 3100 3103 3107 3110 3114 3117 3120 3123 3126 3128 3130 3133 3135 3138 3141 3142 3145 3147 3148 3151 3154 3155 3156 3158 3160 3162 3164 3166 3167 3169 3171 3172 3173 3175 3176 3178 3181 3183
3034 3034 3034 3034 3031 3027 3026 3027 3027 3028 3030 3031 3029 3026 3026 3029 3032 3034 3036 3038 3041 3045 3047 3048 3048 3048 3049 3049 3050 3051 3052 3053 3054 3055 3056 3059 3061 3063 3066 3069 3072 3075 3079 3083 3086 3089 3092 3095 3099 3102 3106 3109 3113 3116 3119 3122 3125 3127 3130 3132 3134 3137 3139 3140 3142 3145 3147 3149 3152 3153 3155 3156 3158 3160 3162 3164 3166 3168 3169 3170 3171 3172 3174 3176 3178 3180
3032 3033 3033 3033 3032 3027 3024 3025 3026 3028 3030 3031 3031 3027 3025 3027 3029 3031 3033 3035 3038 3041 3043 3045 3046 3046 3047 3048 3048 3049 3050 3051 3053 3055 3056 3058 3060 3062 3065 3068 3071 3074 3078 3081 3084 3088 3091 3094 3098 3101 3105 3108 3112 3115 3119 3122 3124 3127 3129 3131 3133 3135 3137 3138 3140 3142 3145 3147 3150 3151 3153 3154 3156 3158 3160 3162 3164 3165 3166 3168 3169 3170 3172 3174 3175 3177
3031 3032 3032 3032 3031 3028 3025 3025 3027 3029 3030 3030 3031 3028 3025 3025 3027 3029 3031 3032 3034 3038 3041 3043 3044 3044 3045 3047 3047 3047 3048 3049 3051 3054 3055 3057 3059 3061 3063 3066 3069 3073 3076 3079 3082 3086 3089 3093 3096 3100 3104 3107 3111 3114 3117 3120 3123 3125 3127 3129 3131 3133 3135 3136 3138 3140 3143 3145 3147 3149 3151 3152 3154 3156 3158 3159 3161 3163 3164 3165 3167 3169 3170 3171 3173 3174
3029 3030 3030 3030 3030 3029 3026 3025 3026 3028 3028 3029 3030 3029 3026 3025 3025 3028 3030 3031 3033 3037 3039 3040 3041 3041 3042 3044 3045 3045 3046 3047 3049 3052 3053 3055 3058 3060 3062 3064 3068 3071 3074 3077 3081 3084 3088 3092 3096 3099 3103 3107 3110 3113 3116 3119 3121 3124 3126 3128 3129 3131 3133 3135 3136 3138 3140 3143 3145 3147 3149 3150 3152 3154 3155 3157 3159 3160 3162 3163 3165 3166 3168 3169 3171 3172
3028 3029 3029 3029 3030 3029 3027 3025 3024 3024 3026 3027 3028 3028 3027 3026 3024 3026 3031 3033 3033 3035 3037 3038 3039 3039 3040 3042 3044 3044 3045 3047 3049 3050 3051 3053 3056 3058 3060 3063 3066 3069 3072 3076 3079 3083 3087 3091 3095 3098 3102 3105 3108 3111 3114 3117 3120 3122 3124 3126 3127 3129 3131 3133 3134 3136 3138 3140 3142 3144 3146 3148 3149 3151 3153 3155 3156 3158 3159 3161 3163 3165 3166 3167 3169 3170
3027 3029 3029 3030 3030 3029 3028 3026 3024 3025 3026 3027 3027 3027 3027 3026 3024 3025 3030 3034 3033 3033 3035 3037 3038 3038 3039 3041 3043 3043 3045 3047 3048 3048 3049 3051 3053 3056 3058 3061 3064 3067 3071 3074 3077 3081 3086 3090 3093 3097 3101 3104 3107 3110 3113 3115 3118 3120 3122 3123 3125 3127 3129 3130 3133 3134 3136 3138 3140 3142 3143 3145 3147 3149 3150 3152 3153 3155 3157 3159 3161 3162 3164 3165 3166 3168
3026 3028 3029 3029 3029 3029 3028 3027 3027 3028 3028 3026 3025 3025 3025 3024 3022 3023 3028 3034 3035 3034 3035 3036 3037 3038 3039 3041 3042 3043 3044 3046 3047 3049 3049 3050 3052 3054 3057 3060 3063 3066 3069 3072 3076 3080 3084 3088 3092 3096 3099 3103 3106 3108 3111 3113 3116 3118 3120 3122 3124 3125 3127 3128 3131 3132 3134 3136 3138 3140 3141 3143 3145 3146 3148 3149 3151 3152 3154 3156 3158 3160 3161 3163 3164 3166
3026 3027 3028 3029 3029 3028 3027 3027 3028 3029 3029 3026 3022 3022 3023 3023 3022 3023 3029 3036 3036 3035 3035 3036 3037 3038 3039 3041 3043 3044 3044 3045 3047 3049 3050 3051 3052 3054 3057 3059 3062 3065 3068 3072 3075 3079 3083 3087 3091 3095 3098 3101 3104 3107 3109 3112 3114 3116 3118 3120 3122 3123 3125 3126 3128 3130 3132 3133 3135 3137 3139 3141 3143 3144 3146 3147 3149 3150 3151 3153 3155 3157 3158 3160 3161 3163
3025 3025 3027 3027 3027 3026 3026 3027 3028 3028 3028 3025 3021 3021 3023 3023 3024 3027 3032 3036 3035 3033 3034 3035 3036 3037 3038 3040 3043 3043 3043 3044 3046 3048 3050 3051 3053 3055 3057 3059 3062 3065 3068 3071 3075 3078 3082 3086 3090 3094 3097 3100 3102 3105 3107 3110 3112 3114 3115 3117 3119 3121 3122 3124 3125 3128 3129 3131 3133 3135 3137 3139 3140 3142 3143 3144 3146 3147 3149 3150 3152 3153 3155 3156 3158 3159
3023 3024 3026 3026 3026 3025 3024 3025 3026 3027 3027 3024 3021 3021 3021 3023 3027 3033 3035 3035 3034 3033 3033 3033 3035 3037 3038 3040 3043 3043 3043 3044 3046 3048 3050 3051 3053 3055 3057 3060 3062 3065 3068 3071 3074 3078 3081 3085 3089 3092 3095 3098 3101 3103 3106 3108 3110 3112 3113 3115 3117 3118 3120 3122 3124 3126 3128 3129 3131 3133 3135 3137 3138 3139 3141 3142 3143 3144 3146 3147 3149 3150 3151 3152 3154 3155
3022 3025 3027 3026 3025 3024 3024 3024 3026 3027 3027 3025 3022 3022 3022 3024 3030 3034 3034 3034 3033 3033 3032 3032 3033 3036 3038 3040 3042 3044 3044 3045 3046 3049 3051 3052 3054 3056 3058 3060 3063 3065 3067 3070 3073 3077 3080 3084 3087 3090 3093 3096 3099 3101 3104 3106 3108 3110 3112 3114 3115 3117 3118 3120 3122 3124 3125 3127 3129 3131 3132 3134 3136 3137 3139 3140 3141 3142 3143 3145 3146 3147 3148 3149 3150 3151
3023 3025 3028 3028 3027 3026 3026 3026 3027 3028 3028 3027 3025 3025 3025 3027 3029 3031 3031 3031 3031 3031 3031 3031 3032 3034 3036 3039 3041 3043 3044 3046 3047 3049 3051 3053 3054 3057 3059 3061 3064 3066 3068 3070 3072 3075 3079 3082 3085 3089 3092 3094 3097 3100 3102 3105 3107 3109 3110 3112 3114 3116 3117 3119 3121 3122 3124 3125 3127 3128 3130 3131 3133 3134 3136 3138 3139 3140 3141 3142 3143 3144 3145 3146 3147 3148
3025 3027 3029 3030 3029 3028 3028 3028 3027 3027 3028 3029 3028 3028 3028 3028 3029 3029 3029 3029 3028 3029 3030 3030 3031 3033 3035 3037 3040 3042 3044 3046 3048 3050 3052 3054 3055 3057 3059 3061 3064 3066 3068 3070 3072 3075 3078 3081 3084 3087 3090 3093 3096 3098 3101 3103 3105 3107 3109 3111 3113 3114 3116 3118 3119 3121 3122 3124 3125 3126 3128 3129 3130 3132 3133 3135 3136 3137 3139 3140 3140 3142 3143 3144 3145 3145
3027 3028 3030 3031 3030 3029 3029 3028 3028 3027 3027 3028 3029 3029 3028 3028 3029 3029 3029 3029 3028 3028 3028 3029 3030 3033 3034 3036 3038 3040 3042 3045 3048 3050 3052 3054 3055 3057 3059 3061 3063 3066 3068 3070 3073 3075 3077 3080 3083 3086 3089 3092 3094 3097 3099 3102 3104 3106 3108 3110 3111 3113 3114 3116 3117 3119 3120 3122 3123 3124 3126 3127 3128 3129 3130 3132 3133 3134 3135 3136 3137 3139 3140 3141 3142 3143
3028 3029 3030 3032 3031 3030 3030 3029 3028 3027 3026 3027 3027 3028 3027 3027 3029 3030 3030 3029 3029 3029 3028 3028 3030 3032 3033 3035 3036 3038 3041 3043 3046 3048 3051 3053 3054 3056 3058 3060 3062 3065 3067 3069 3072 3074 3077 3079 3082 3085 3088 3090 3093 3095 3098 3100 3102 3104 3106 3107 3109 3110 3112 3113 3115 3116 3118 3119 3121 3122 3123 3125 3126 3127 3128 3129 3130 3131 3132 3133 3135 3136 3137 3138 3139 3140
3030 3030 3031 3031 3031 3030 3029 3029 3028 3027 3026 3025 3026 3027 3027 3028 3029 3030 3030 3029 3030 3030 3030 3030 3031 3032 3033 3034 3035 3037 3040 3042 3045 3046 3049 3052 3054 3055 3057 3059 3061 3064 3066 3068 3071 3073 3076 3079 3081 3084 3087 3089 3091 3093 3096 3098 3100 3102 3104 3105 3106 3108 3109 3110 3111 3113 3115 3117 3118 3119 3121 3122 3123 3124 3125 3126 3127 3128 3129 3131 3132 3133 3134 3135 3136 3137
3031 3031 3031 3031 3029 3028 3028 3028 3027 3026 3026 3025 3025 3025 3026 3028 3029 3029 3029 3029 3030 3030 3030 3030 3032 3033 3033 3033 3035 3037 3039 3042 3044 3045 3047 3050 3053 3055 3056 3058 3060 3063 3065 3067 3070 3073 3075 3078 3080 3083 3085 3087 3089 3091 3093 3095 3097 3099 3101 3102 3103 3105 3106 3107 3108 3110 3112 3113 3115 3117 3118 3119 3120 3121 3122 3123 3124 3125 3126 3127 3129 3130 3131 3132 3133 3134
3031 3031 3031 3030 3028 3026 3026 3026 3026 3025 3024 3025 3025 3024 3024 3025 3027 3027 3028 3028 3029 3030 3030 3030 3031 3032 3032 3033 3035 3038 3040 3042 3044 3045 3047 3049 3051 3054 3056 3058 3059 3061 3063 3066 3068 3071 3073 3076 3078 3080 3082 3084 3086 3089 3091 3093 3095 3096 3097 3099 3100 3101 3103 3104 3106 3107 3108 3110 3112 3113 3115 3116 3117 3118 3119 3120 3121 3122 3123 3124 3125 3126 3128 3129 3130 3130
3032 3031 3031 3029 3026 3025 3024 3024 3024 3023 3022 3023 3024 3023 3023 3024 3024 3025 3026 3026 3027 3028 3029 3029 3030 3032 3033 3034 3036 3038 3040 3041 3042 3044 3046 3048 3050 3052 3054 3056 3058 3059 3061 3063 3065 3067 3070 3072 3075 3078 3080 3082 3084 3086 3088 3090 3092 3093 3094 3095 3096 3098 3099 3101 3103 3104 3105 3107 3108 3110 3111 3112 3113 3115 3116 3117 3118 3119 3120 3121 3122 3123 3124 3125 3126 3127